Location: Dürabuch
(48.2640°N, 11.2185°E)
Time: 08:09:59
(UTC+00:00)

CZ-2D R/B - Pass Details

Date: 23 May 2024
Orbit: 791 x 843 km, 98.8° (Epoch: 15 June)

Event Time Altitude Azimuth Distance (km) Brightness Sun altitude
Rises 00:10:40 0° 25° (NNE) 3,412 6.9 -19.9°
Reaches altitude 10° 00:13:33 10° 40° (NE) 2,468 5.6 -19.7°
Maximum altitude 00:17:51 23° 92° (E) 1,709 3.9 -19.5°
Enters shadow 00:21:25 13° 138° (SE) 2,249 4.1 -19.4°
